OSCAR 7 1 07530U 74089B 10067.48719346 -.00000027 +00000-0 +10000-3 0 07227 2 07530 101.4092 087.2415 0012128 111.3196 248.9180 12.53577978615836 OSCAR 11 (UoSAT 2) 1 14781U 84021B 10067.74485729 -.00000168 +00000-0 -15129-4 0 01953 2 14781 098.0686 119.1192 0008681 197.0459 163.0434 14.79774331396951 EGS (AJISAI) 1 16908U 86061A 10065.89918334 -.00000083 00000-0 10000-3 0 1552 2 16908 050.0091 071.2450 0011572 165.8242 194.2917 12.44463868740318 TDRS 3 1 19548U 88091B 10066.22586333 -.00000303 +00000-0 +10000-3 0 04512 2 19548 012.3311 037.2077 0036069 317.8471 202.2886 01.00270919065784 NAVSTAR 13 (USA 35) 1 19802U 89013A 10065.95347505 -.00000048 +00000-0 +10000-3 0 03565 2 19802 055.6258 296.1359 0047522 103.7089 256.8586 01.85321139148967 TDRS 4 1 19883U 89021B 10067.09890917 -.00000293 +00000-0 +10000-3 0 07656 2 19883 011.0728 048.7781 0007885 320.4131 146.2958 01.00269274249367 NAVSTAR 14 (USA 38) 1 20061U 89044A 10065.19960746 -.00000023 +00000-0 +10000-3 0 00214 2 20061 054.1236 091.9651 0020551 085.4625 274.8190 01.88857257149495 NAVSTAR 15 (USA 42) 1 20185U 89064A 10064.86129548 -.00000047 +00000-0 +10000-3 0 07991 2 20185 055.3796 293.7280 0013684 237.5799 122.3332 01.86084789145533 NAVSTAR 16 (USA 47) 1 20302U 89085A 10062.36112917 -.00000072 +00000-0 +10000-3 0 09934 2 20302 055.3999 034.5940 0008142 337.9156 022.0327 01.89423455145831 NAVSTAR 17 (USA 49) 1 20361U 89097A 10063.70955679 +.00000033 +00000-0 +10000-3 0 04910 2 20361 054.1326 222.3169 0016422 223.8090 136.0152 01.89175150136813 OSCAR 14 (UOSAT 3) 1 20437U 90005B 10067.74793205 -.00000037 +00000-0 +19047-5 0 01574 2 20437 098.3792 021.1662 0011703 103.1143 257.1364 14.31565972050904 OSCAR 16 (PACSAT) 1 20439U 90005D 10067.77201999 +.00000035 +00000-0 +28652-4 0 08411 2 20439 098.3204 029.6932 0011891 103.1245 257.1264 14.31851080051018 OSCAR 19 (LUSAT) 1 20442U 90005G 10067.78592619 +.00000062 +00000-0 +38314-4 0 07525 2 20442 098.2811 035.9163 0012854 098.8970 261.3666 14.32084024051184 NAVSTAR 18 (USA 50) 1 20452U 90008A 10067.74696850 -.00000115 +00000-0 +10000-3 0 03681 2 20452 056.4780 342.0682 0010728 200.1117 159.8698 01.89595715143543 JAS 1B (FUJI 2) 1 20480U 90013C 10067.69485603 -.00000044 +00000-0 -17548-4 0 03940 2 20480 099.0476 304.0724 0539642 291.6363 062.8105 12.83364086940837 NAVSTAR 20 (USA 63) 1 20724U 90068A 10061.77527266 -.00000027 +00000-0 +10000-3 0 04571 2 20724 054.7581 283.9685 0046218 239.3170 120.2638 01.87181994138545 FENGYUN 1B 1 20788U 90081A 10067.82131463 -.00000065 +00000-0 -12551-4 0 09299 2 20788 099.1394 090.5442 0015389 317.0094 042.9859 14.02368028998463 NAVSTAR 21 (USA 64) 1 20830U 90088A 10062.28024380 .00000024 00000-0 10000-3 0 4180 2 20830 054.1355 217.4112 0017979 152.5330 207.5101 01.87754357141153 NAVSTAR 22 (USA 66) 1 20959U 90103A 10066.83606221 +.00000008 +00000-0 +10000-3 0 06000 2 20959 055.0097 272.3777 0130790 301.0768 057.6841 02.00573309141199 COSMOS 2123 1 21089U 91007A 10067.87293973 -.00000022 +00000-0 -39126-4 0 04085 2 21089 082.9172 070.2077 0028403 315.1918 044.6942 13.74491553957551 NOAA 12 1 21263U 91032A 10065.46116431 .00000046 00000-0 38064-4 0 4807 2 21263 098.7697 078.6164 0013293 103.9078 256.3580 14.25619878977766 NAVSTAR 23 (USA 71) 1 21552U 91047A 10067.57742260 +.00000007 +00000-0 +10000-3 0 05967 2 21552 054.4010 210.3596 0058782 331.2271 028.4148 02.00420766136796 OSCAR 22 (UoSAT 5) 1 21575U 91050B 10067.69898757 +.00000037 +00000-0 +25914-4 0 07788 2 21575 098.4820 018.3939 0006706 312.5022 047.5587 14.39706043978760 TDRS 5 1 21639U 91054B 10067.35100980 +.00000092 +00000-0 +10000-3 0 06015 2 21639 010.4526 052.4633 0020713 319.9312 112.3853 01.00264989068113 METEOR 3-5 1 21655U 91056A 10067.90124691 +.00000051 +00000-0 +10000-3 0 07578 2 21655 082.5595 019.4825 0012230 237.9987 121.9978 13.17023261892470 NAVSTAR 24 (USA 79) 1 21890U 92009A 10067.54680273 -.00000080 +00000-0 +10000-3 0 06078 2 21890 055.7328 022.1926 0116434 291.2306 067.5231 02.00563265132173 NAVSTAR 26 (USA 83) 1 22014U 92039A 10064.75947697 -.00000099 00000-0 10000-3 0 5255 2 22014 056.7982 331.1859 0191616 060.6745 301.2552 02.00721122122886 OSCAR 23 (KITSAT 1) 1 22077U 92052B 10067.69362427 -.00000037 +00000-0 +10000-3 0 09769 2 22077 066.0844 132.6792 0010197 216.5878 143.4444 12.86451646825544 NAVSTAR 27 (USA 84) 1 22108U 92058A 10064.25217914 -.00000078 00000-0 10000-3 0 4152 2 22108 056.0105 024.4611 0219156 276.3948 081.1031 02.00564719128057 NAVSTAR 28 (USA 85) 1 22231U 92079A 10066.85297005 -.00000102 +00000-0 +10000-3 0 03707 2 22231 056.6855 331.7993 0080917 256.3204 102.8151 02.00579032126688 NAVSTAR 29 (USA 87) 1 22275U 92089A 10066.03677928 -.00000110 +00000-0 +10000-3 0 01833 2 22275 056.6072 333.1533 0040207 338.6343 021.2322 01.88249453125037 TDRS 6 1 22314U 93003B 10065.40294903 +.00000079 +00000-0 +10000-3 0 06335 2 22314 009.8078 055.4728 0010581 324.1901 118.1972 01.00279588062818 NAVSTAR 30 (USA 88) 1 22446U 93007A 10065.15481218 -.00000024 +00000-0 +10000-3 0 02724 2 22446 054.0630 093.6174 0024151 288.3800 071.4092 01.88093042122193 NAVSTAR 31 (USA 90) 1 22581U 93017A 10065.40223596 -.00000029 +00000-0 +10000-3 0 00044 2 22581 053.5254 151.0175 0001421 013.3613 346.6754 01.88946506122310 NAVSTAR 32 (USA 91) 1 22657U 93032A 10063.50284839 -.00000005 00000-0 10000-3 0 5691 2 22657 053.6408 143.3930 0097344 283.1617 075.8092 02.00542921119397 NAVSTAR 33 (USA 92) 1 22700U 93042A 10067.75812113 -.00000073 +00000-0 +10000-3 0 07613 2 22700 056.1252 025.7344 0204912 087.9394 274.3962 02.00572064122281 NAVSTAR 34 (USA 94) 1 22779U 93054A 10063.36958813 -.00000021 00000-0 10000-3 0 3128 2 22779 054.3998 081.9141 0099575 079.4002 281.7653 02.00568072120957 METEOR 2-21 1 22782U 93055A 10067.77557837 -.00000032 +00000-0 -41883-4 0 07179 2 22782 082.5506 332.1127 0021676 328.3054 031.6790 13.83643955834193 KITSAT B 1 22825U 93061C 10065.45633486 .00000007 00000-0 19583-4 0 4722 2 22825 098.4744 016.1228 0007757 207.5313 152.5470 14.29288374857376 POSAT 1 1 22826U 93061D 10067.77989370 +.00000024 +00000-0 +26233-4 0 02105 2 22826 098.4684 019.0228 0008567 194.8693 165.2246 14.29543374857816 ITAMSAT 1 22828U 93061F 10067.89900037 +.00000008 +00000-0 +19692-4 0 04108 2 22828 098.4624 018.9822 0009886 168.7615 191.3825 14.29839654826110 NAVSTAR 35 (USA 96) 1 22877U 93068A 10063.41226486 .00000026 00000-0 10000-3 0 875 2 22877 053.8248 207.7644 0090322 034.8290 325.7131 02.00566730119844 NAVSTAR 36 (USA 100) 1 23027U 94016A 10066.61006678 -.00000040 +00000-0 +10000-3 0 00878 2 23027 053.5287 144.6416 0062125 294.0390 065.3541 02.00564057117210 RADIO ROSTO 1 23439U 94085A 10067.81241408 -.00000039 +00000-0 +10000-3 0 02887 2 23439 064.8127 196.8815 0156556 002.2526 357.9069 11.27554893625955 NOAA 14 1 23455U 94089A 10065.45244716 .00000030 00000-0 39256-4 0 9727 2 23455 098.8837 146.8932 0009604 162.3226 197.8282 14.13780433782983 ORBCOMM FM 1 1 23545U 95017A 10067.69299565 +.00000399 +00000-0 +94073-4 0 04472 2 23545 069.9718 236.4713 0010840 227.9302 132.0907 14.61423339792719 ORBCOMM FM 2 1 23546U 95017B 10067.73594115 +.00000473 +00000-0 +10918-3 0 05061 2 23546 069.9754 238.4697 0011549 214.3109 145.7297 14.61340715792736 TDRS 7 1 23613U 95035B 10067.69736793 -.00000202 +00000-0 +00000-0 0 06869 2 23613 011.5894 045.2720 0034667 317.5441 139.4030 01.00269614053643 NAVSTAR 37 (USA 117) 1 23833U 96019A 10066.12524847 -.00000037 +00000-0 +10000-3 0 02752 2 23833 053.1141 140.6607 0127406 057.3150 303.9544 02.00560781102180 NAVSTAR 38 (USA 126) 1 23953U 96041A 10064.02846767 -.00000003 00000-0 10000-3 0 7540 2 23953 054.6887 268.8945 0090942 036.2991 324.3103 02.00588434 99938 JAS 2 1 24278U 96046B 10067.60400914 -.00000040 +00000-0 -55559-5 0 02641 2 24278 098.5205 270.6103 0351161 024.8853 336.8762 13.52948256669506 NAVSTAR 39 (USA 128) 1 24320U 96056A 10063.40456134 -.00000018 +00000-0 +10000-3 0 04959 2 24320 054.7245 085.1042 0117260 084.4865 276.8990 02.00551320098581 FENGYUN 2A 1 24834U 97029A 10067.54541419 -.00000071 +00000-0 +10000-3 0 04678 2 24834 009.0381 059.6331 0093941 079.6402 281.5087 00.96050583046305 NAVSTAR 43 (USA 132) 1 24876U 97035A 10067.48986526 -.00000100 +00000-0 +10000-3 0 02486 2 24876 056.9215 331.2569 0039264 094.4298 266.0543 02.00574549092537 NAVSTAR 44 (USA 134) 1 25030U 97067A 10066.12599868 -.00000063 +00000-0 +10000-3 0 01592 2 25030 056.8433 031.4254 0109824 178.9525 181.0723 02.00558840090408 ORBCOMM FM 8 1 25112U 97084A 10067.78511172 +.00000489 +00000-0 +22187-3 0 04714 2 25112 045.0170 190.7695 0007270 326.5310 033.5087 14.34380831638247 ORBCOMM FM 10 1 25113U 97084B 10067.68057586 -.00000090 +00000-0 +18175-4 0 01986 2 25113 045.0182 192.0789 0005239 288.9460 071.0809 14.34393053638227 ORBCOMM FM 11 1 25114U 97084C 10065.86068338 -.00004893 00000-0 -16743-2 0 1277 2 25114 045.0189 200.2840 0005961 291.0984 068.9358 14.34400664637964 ORBCOMM FM 12 1 25115U 97084D 10067.72400433 -.00005420 +00000-0 -18617-2 0 01225 2 25115 045.0181 191.2505 0004761 299.4575 060.5746 14.34365231638239 ORBCOMM FM 9 1 25116U 97084E 10065.85261008 -.00000061 00000-0 28051-4 0 2862 2 25116 045.0195 200.4606 0005170 270.8295 089.1959 14.34446608637967 ORBCOMM FM 5 1 25117U 97084F 10065.60845403 -.00004526 00000-0 -15461-2 0 2245 2 25117 045.0187 201.8781 0001833 283.2418 076.8663 14.34373326637922 ORBCOMM FM 6 1 25118U 97084G 10067.68899449 +.00000053 +00000-0 +68311-4 0 01124 2 25118 045.0180 191.9460 0000626 318.3575 041.7191 14.34420883638224 ORBCOMM FM 7 1 25119U 97084H 10067.77627340 +.00000606 +00000-0 +26317-3 0 03859 2 25119 045.0174 191.7369 0003093 293.8699 066.1829 14.34390711638235 NOAA 15 1 25338U 98030A 10065.20541645 .00000198 00000-0 10354-3 0 2919 2 25338 098.6127 054.0170 0010964 020.1387 340.0246 14.24810947614082 RESURS O1-N4 1 25394U 98043A 10067.67230692 +.00000004 +00000-0 +19221-4 0 04512 2 25394 098.3138 091.1898 0001888 126.9798 233.1559 14.24194596606049 TMSAT 1 25396U 98043C 10067.79621188 -.00000018 +00000-0 +98998-5 0 06451 2 25396 098.3148 086.7050 0002618 157.0690 203.0605 14.23796352605954 TECHSAT 1B 1 25397U 98043D 10065.17360531 -.00000087 00000-0 -20733-4 0 1288 2 25397 098.3168 078.2872 0001386 160.3802 199.7431 14.23172344605393 ORBCOMM FM 17 1 25413U 98046A 10067.57124981 +.00000292 +00000-0 +17344-3 0 02597 2 25413 044.9960 109.6549 0003963 245.9223 114.1204 14.27593568604475 ORBCOMM FM 18 1 25414U 98046B 10067.48202785 +.00005185 +00000-0 +21309-2 0 02037 2 25414 044.9947 109.6157 0005970 240.1435 119.8825 14.27873210604463 ORBCOMM FM 19 1 25415U 98046C 10067.49203140 +.00005079 +00000-0 +20888-2 0 02409 2 25415 044.9951 109.7757 0004833 236.4823 123.5563 14.27868270604463 ORBCOMM FM 20 1 25416U 98046D 10067.43206903 +.00005573 +00000-0 +22872-2 0 06828 2 25416 044.9954 110.2327 0003529 256.8796 103.1631 14.27858530604416 ORBCOMM FM 16 1 25417U 98046E 10067.51196748 +.00000206 +00000-0 +13814-3 0 02857 2 25417 044.9987 110.8412 0004712 254.0601 105.9725 14.27837095604466 ORBCOMM FM 15 1 25418U 98046F 10067.59196373 +.00000103 +00000-0 +96815-4 0 03344 2 25418 044.9993 110.6929 0005579 252.4373 107.5869 14.27852882604474 ORBCOMM FM 14 1 25419U 98046G 10067.53198622 -.00000156 +00000-0 -71344-5 0 02977 2 25419 044.9982 110.9077 0004656 239.4198 120.6201 14.27851262604461 ORBCOMM FM 13 1 25420U 98046H 10066.14262041 .00001046 00000-0 47513-3 0 1742 2 25420 045.0004 117.7643 0004757 241.2081 118.8331 14.27804865604299 ORBCOMM FM 21 1 25475U 98053A 10067.71670531 +.00000107 +00000-0 +96613-4 0 02419 2 25475 045.0099 196.4458 0005220 163.8978 196.2036 14.29024364597654 ORBCOMM FM 22 1 25476U 98053B 10067.75226308 +.00001475 +00000-0 +63233-3 0 09218 2 25476 045.0097 196.6714 0003494 188.4717 171.6140 14.29027929597647 ORBCOMM FM 23 1 25477U 98053C 10067.66972393 +.00000415 +00000-0 +21718-3 0 02321 2 25477 045.0098 196.7821 0003789 182.5383 177.5453 14.29021937597803 ORBCOMM FM 24 1 25478U 98053D 10065.63158169 .00000369 00000-0 19907-3 0 8055 2 25478 045.0110 206.5495 0002441 178.4568 181.6281 14.29028497597497 ORBCOMM FM 25 1 25479U 98053E 10067.76310687 -.00000062 +00000-0 +30118-4 0 01060 2 25479 045.0105 195.9523 0004286 207.2542 152.8075 14.29015393597792 ORBCOMM FM 26 1 25480U 98053F 10067.76082068 +.00000170 +00000-0 +12029-3 0 01835 2 25480 045.0086 186.4852 0006600 240.4506 119.5666 14.29318795597892 ORBCOMM FM 27 1 25481U 98053G 10065.53779350 .00000195 00000-0 13092-3 0 7144 2 25481 045.0083 206.0331 0002720 151.3547 208.7457 14.29027820597474 ORBCOMM FM 28 1 25482U 98053H 10067.71857508 +.00000414 +00000-0 +21219-3 0 08278 2 25482 045.0107 166.8651 0005234 233.2105 126.8246 14.30151931598158 PAN SAT 1 25520U 98064B 10067.91773038 +.00000745 +00000-0 +26578-4 0 04468 2 25520 028.4591 281.9477 0005017 307.4968 052.5180 15.17492262628908 OSCAR 36 (UOSAT 12) 1 25693U 99021A 10065.46497743 -.00000085 00000-0 79224-5 0 1425 2 25693 064.5595 030.0583 0026570 323.9355 035.9950 14.78783605586627 FENGYUN 1C 1 25730U 99025A 10067.83839929 +.00000100 +00000-0 +83808-4 0 09933 2 25730 098.7783 035.4327 0023201 188.0427 172.0401 14.08177448557560 NAVSTAR 46 (USA 145) 1 25933U 99055A 10066.76713621 -.00000011 +00000-0 +10000-3 0 07014 2 25933 050.9147 194.3089 0103723 045.1061 315.7005 02.00556492076330 ORBCOMM FM 30 1 25980U 99065A 10065.87150960 .00000337 00000-0 18702-3 0 7601 2 25980 045.0347 010.1214 0005367 004.8567 355.2331 14.28903050534858 ORBCOMM FM 31 1 25981U 99065B 10065.85879644 .00000416 00000-0 21783-3 0 8609 2 25981 045.0266 007.6714 0004463 005.6530 354.4370 14.28913486534847 ORBCOMM FM 32 1 25982U 99065C 10065.26820547 -.00000063 00000-0 29660-4 0 7918 2 25982 045.0249 009.4305 0006279 016.3265 343.7794 14.29341862534773 ORBCOMM FM 33 1 25983U 99065D 10065.95552553 -.00000046 00000-0 36745-4 0 7647 2 25983 045.0326 009.4015 0004265 354.2212 005.8589 14.28885350534858 ORBCOMM FM 36 1 25984U 99065E 10065.91442698 .00000019 00000-0 62064-4 0 7914 2 25984 045.0415 011.3627 0005649 298.7905 061.2366 14.28907558534851 ORBCOMM FM 35 1 25985U 99065F 10066.17930704 -.00000002 00000-0 54004-4 0 8227 2 25985 045.0439 011.0004 0003271 351.6688 008.4078 14.28904583534892 ORBCOMM FM 34 1 25986U 99065G 10065.95526842 .00000247 00000-0 15171-3 0 7722 2 25986 045.0430 011.5011 0005538 338.6717 021.4079 14.28905612534860 OPAL 1 26063U 00004C 10067.59453061 -.00000026 +00000-0 +11350-4 0 07461 2 26063 100.2272 267.8479 0036600 236.9061 122.8601 14.35886975529897 NAVSTAR 47 (USA 150) 1 26360U 00025A 10067.36794945 +.00000016 +00000-0 +10000-3 0 07949 2 26360 053.7555 265.7356 0041194 073.3859 287.0863 02.00564384072046 FENGYUN 2B 1 26382U 00032A 10064.83832104 -.00000273 +00000-0 +10000-3 0 02446 2 26382 004.9767 069.2045 0003642 262.4752 097.6717 01.00098380035481 CHAMP 1 26405U 00039B 10067.86849439 +.00032091 -91703-6 +93974-4 0 01556 2 26405 087.2200 205.3505 0002170 086.5083 273.6414 15.92501132551645 NAVSTAR 48 (USA 151) 1 26407U 00040A 10067.20211128 -.00000005 +00000-0 +10000-3 0 07419 2 26407 055.5444 089.3881 0160614 247.3725 110.9675 02.00564762070719 NOAA 16 1 26536U 00055A 10065.16466392 .00000252 00000-0 16130-3 0 7688 2 26536 099.1758 080.1781 0009762 266.0935 093.9165 14.12549302487286 SAUDISAT 1A 1 26545U 00057A 10065.96075212 -.00000015 00000-0 17278-4 0 4753 2 26545 064.5587 027.8200 0050696 238.3538 121.2593 14.80658647510105 TIUNGSAT 1 1 26548U 00057D 10067.71969609 +.00000226 +00000-0 +45190-4 0 06336 2 26548 064.5564 341.9218 0043543 236.4983 123.1989 14.83450665511191 SAUDISAT 1B 1 26549U 00057E 10067.68117791 +.00000115 +00000-0 +34406-4 0 05659 2 26549 064.5583 040.6233 0055696 239.2323 120.3304 14.79513798509991 NAVSTAR 49 (USA 154) 1 26605U 00071A 10067.80020916 -.00000098 +00000-0 +10000-3 0 07481 2 26605 056.5415 330.0245 0051478 241.4150 118.0976 02.00559672068323 NAVSTAR 50 (USA 156) 1 26690U 01004A 10067.66719596 +.00000013 +00000-0 +10000-3 0 06323 2 26690 053.7669 268.8096 0111071 226.2952 132.7970 02.00563590066730 PICOSAT 9 1 26930U 01043B 10067.64152510 -.00000048 +00000-0 +13766-4 0 03855 2 26930 066.9999 079.2980 0010891 262.1667 097.8189 14.30064369440550 PCSAT 1 26931U 01043C 10067.67039343 +.00000219 +00000-0 +11776-3 0 04046 2 26931 067.0509 102.9492 0006589 263.6511 096.3844 14.29586903440389 SAPPHIRE 1 26932U 01043D 10067.69506538 -.00000113 +00000-0 -11850-4 0 04100 2 26932 067.0555 102.9213 0008411 263.6169 096.4001 14.29628549440432 FENGYUN 1D 1 27431U 02024B 10067.89596429 -.00000237 +00000-0 -11180-3 0 08268 2 27431 098.6576 051.9316 0015893 026.3006 333.8985 14.09289805402098 NOAA 17 1 27453U 02032A 10065.28004961 -.00000099 00000-0 -24809-4 0 7748 2 27453 098.4444 119.8053 0012691 079.8237 280.4387 14.24135730400059 MOZHAYETS 1 27560U 02054B 10067.74850423 +.00000058 +00000-0 +23251-4 0 01732 2 27560 097.9222 262.0477 0044014 106.4923 254.1109 14.55078315385220 SAUDISAT 1C 1 27607U 02058C 10067.69938348 +.00000021 +00000-0 +25055-4 0 01212 2 27607 064.5586 301.7319 0037268 123.7537 236.7113 14.71507607387599 NAVSTAR 51 (USA 166) 1 27663U 03005A 10067.02166129 -.00000007 +00000-0 +10000-3 0 00097 2 27663 055.6463 088.9472 0058276 342.5056 017.3428 02.00558455052079 NAVSTAR 52 (USA 168) 1 27704U 03010A 10067.59064039 +.00000002 +00000-0 +10000-3 0 09181 2 27704 053.4466 208.2377 0161606 216.6570 142.1958 02.00559236050878 NAVSTAR 53 (USA 175) 1 28129U 03058A 10064.71947753 -.00000002 00000-0 10000-3 0 5119 2 28129 053.6391 269.2130 0058545 236.5936 122.8759 02.00564857 45522 NAVSTAR 54 (USA 177) 1 28190U 04009A 10066.16470529 -.00000035 +00000-0 +10000-3 0 04628 2 28190 054.8733 151.9019 0062145 348.2172 011.6698 02.00560244043723 NAVSTAR 55 (USA 178) 1 28361U 04023A 10065.95578087 -.00000099 00000-0 10000-3 0 2840 2 28361 055.4910 327.9535 0061503 168.9594 191.1307 02.00558346 41805 APRIZESAT 2 1 28366U 04025A 10067.44068853 +.00000092 +00000-0 +42870-4 0 05833 2 28366 098.1116 053.2218 0110407 092.7814 268.6024 14.35599283298149 UNISAT 3 1 28373U 04025H 10067.67808470 -.00000051 +00000-0 -26362-5 0 06043 2 28373 098.0349 074.9416 0071613 018.7083 341.6698 14.43368404300292 AMSAT ECHO 1 28375U 04025K 10067.72092843 +.00000039 +00000-0 +24264-4 0 06222 2 28375 098.0581 066.9587 0085152 042.3470 318.4246 14.40672663299041 NAVSTAR 56 (USA 180) 1 28474U 04045A 10064.45889102 .00000026 00000-0 10000-3 0 1686 2 28474 053.8711 206.6888 0093690 171.2554 188.8718 02.00550917 39138 HAMSAT 1 28650U 05017B 10065.96025778 -.00000056 +00000-0 -48351-6 0 04524 2 28650 097.7047 123.3226 0025955 250.1331 109.7052 14.81693688261554 NAVSTAR 57 (USA 183) 1 28874U 05038A 10067.30343205 -.00000042 +00000-0 +10000-3 0 04344 2 28874 055.0107 148.6920 0052281 214.7647 144.9256 02.00575797032613 SSETI-EXPRESS 1 28894U 05043E 10067.73302137 +.00000062 +00000-0 +22577-4 0 07109 2 28894 098.0249 314.9808 0016555 241.4123 118.5406 14.59711613232445 MOZ.5/SAFIR/RUBIN 5/SL-8 1 28898U 05043G 10067.67882371 +.00000021 +00000-0 +14224-4 0 05528 2 28898 098.0088 310.6956 0017718 253.8457 106.0787 14.58597611232258 NAVSTAR 58 (USA 190) 1 29486U 06042A 10066.90865226 -.00000070 +00000-0 +10000-3 0 07554 2 29486 055.9304 027.5549 0077651 297.1741 061.9927 02.00568505025301 NAVSTAR 59 (USA 192) 1 29601U 06052A 10067.35572789 -.00000003 +00000-0 +10000-3 0 08044 2 29601 055.5724 087.9401 0035280 325.2309 034.5884 02.00555241024225 PEHUENSAT 1 1 29712U 07001D 10065.61748783 .00000731 00000-0 10102-3 0 1647 2 29712 097.7935 120.3121 0014847 137.9772 222.2574 14.80905880170301 NAVSTAR 60 (USA 196) 1 32260U 07047A 10062.16943023 -.00000087 00000-0 00000+0 0 5315 2 32260 054.6884 326.7301 0024869 339.2377 020.7034 02.00557635 17518 NAVSTAR 61 (USA 199) 1 32384U 07062A 10064.48788990 -.00000015 00000-0 10000-3 0 5592 2 32384 055.0251 149.2752 0031918 283.8798 075.8212 02.00549994 16281 NAVSTAR 62 (USA 201) 1 32711U 08012A 10067.07700294 -.00000071 +00000-0 +10000-3 0 04233 2 32711 055.6240 027.5941 0032491 180.5998 179.3891 02.00557992014546 DELFI C3 1 32789U 08021G 10067.65343829 +.00000459 +00000-0 +64512-4 0 06261 2 32789 097.9105 134.2241 0014643 250.7177 109.2446 14.81998137100611